COSMOS 2434 (GLONASS)

Satellite information

Favourite Embed

Satellite Type and Status

PAYLOADIN ORBIT

Key statistics

Satellite COSMOS 2434 (GLONASS) at a glance.

Uptime

6404

Days in orbit

Revolutions

≈ 2.1

Per day

Orbit

MEO

Medium Earth Orbit

Inclination

64.3

Latest

Satellite identification and parameters

Extended collection of information and parameters for COSMOS 2434 (GLONASS).

Object identification

Identified? True

Debris? False

Object name: COSMOS 2434 (GLONASS)

International designator: 2007-065A

Object number (NORAD): 32393

Object ID (CCSDS): 32393

Country: COMMONWEALTH OF INDEPENDENT STATES (CIS)

Current information (Y/N): Y

RCS size: LARGE

Orbital parameters

Period: 675.734 minutes

Inclination: 64.3171 deg

SMA: 25508.066 km

Apoapsis: 19131.867 km

Periapsis: 19127.995 km

RAAN: 203.5855 deg

Eccentricy: 0.0000759

Argument of periapsis: 317.8719 deg

Mean anomaly: 57.0139 deg

Mean motion: 2.13101482 rev/day

Mean motion (dot): 0.00000113 rev/day2

B* drag term: 0.0 1/REarth

Two-line elements (TLE)

Creation date: July 6, 2025, 6:05 p.m.

Reference frame: TEME

Reference center: EARTH

Epoch: July 6, 2025, 5:36 a.m. UTC

TLE line 0: 0 COSMOS 2434 (GLONASS)

TLE line 1: 1 32393U 07065A 25187.23352317 .00000113 00000-0 00000-0 0 9992

TLE line 2: 2 32393 64.3171 203.5855 0000759 317.8719 57.0139 2.13101482136400

Live tracking on map

Real-time ground track for satellite COSMOS 2434 (GLONASS).

In-orbit conjunctions

There are no conjunctions computed for COSMOS 2434 (GLONASS), at the moment. Check back to stay up to date, as we update our databases every day.

Go to all conjunctions

Associated space launch

GLONASS navigation satellites

COSMOS 2434 (GLONASS) was lifted into orbit during the mission ‘Proton-M | Uragan-M 12 to 14’, on board a Proton-M space rocket.

The launch took place on Dec. 25, 2007, 7:32 p.m. from 81/24 (81P).

For more information about the launch, click the button.

Launch to space Proton-M | Uragan-M 12 to 14
Proton-M | Uragan-M 12 to 14

Agency: N/A

Status: Launch Successful

Launch date: Dec. 25, 2007, 7:32 p.m. UTC

Rocket: Proton-M

Launch pad: 81/24 (81P)

Location: Baikonur Cosmodrome, Republic of Kazakhstan

...

Latest news about this satellite

There are no fresh news available about this satellite. Check back as we update our databases every day.


Newsletter sign-up

Weekly statistics, charts and insights to help you stay on top of the space industry.